Location: Dompnac
(44.5644°N, 4.1026°E)
Time: 09:56:39
(UTC+00:00)

Cosmos 1300 Rocket - Pass Details

Date: 19 September 2020
Orbit: 601 x 627 km, 82.5° (Epoch: 29 October)

Event Time Altitude Azimuth Distance (km) Brightness Sun altitude
Rises 18:31:17 0° 163° (SSE) 2,874 6.7 -8.8°
Reaches altitude 10° 18:33:39 10° 154° (SSE) 1,978 5.8 -9.2°
Maximum altitude 18:37:34 33° 90° (E) 1,057 4.2 -9.9°
Drops below altitude 10° 18:41:32 10° 27° (NNE) 2,005 6.0 -10.6°
Sets 18:43:56 0° 18° (NNE) 2,920 7.0 -11.0°
